Time,TemperatureF,DewpointF,PressureIn,WindDirection,WindDirectionDegrees,WindSpeedMPH,WindSpeedGustMPH,Humidity,HourlyPrecipIn,Conditions,Clouds,dailyrainin,SoftwareType,DateUTC
2013-02-26 00:03:00,40.8,23.2,29.07,West,262,3.0,8.0,49,0.00,,,0.00,meteohub,2013-02-26 06:03:00,
2013-02-26 00:08:00,40.8,23.2,29.07,WNW,282,4.0,8.0,49,0.00,,,0.00,meteohub,2013-02-26 06:08:00,
2013-02-26 00:13:00,40.8,23.2,29.07,West,259,4.0,8.0,49,0.00,,,0.00,meteohub,2013-02-26 06:13:00,
2013-02-26 00:18:00,40.8,23.2,29.07,NW,306,2.0,6.0,49,0.00,,,0.00,meteohub,2013-02-26 06:18:00,
2013-02-26 00:23:00,40.8,22.6,29.07,West,280,4.0,6.0,48,0.00,,,0.00,meteohub,2013-02-26 06:23:00,
2013-02-26 00:28:00,40.8,22.6,29.07,North,8,4.0,6.0,48,0.00,,,0.00,meteohub,2013-02-26 06:28:00,
2013-02-26 00:33:00,40.8,22.1,29.07,West,274,4.0,6.0,47,0.00,,,0.00,meteohub,2013-02-26 06:33:00,
2013-02-26 00:38:00,40.8,21.6,29.07,NNW,329,4.0,6.0,46,0.00,,,0.00,meteohub,2013-02-26 06:38:00,
2013-02-26 00:43:00,40.8,21.6,29.07,ESE,108,6.0,9.0,46,0.00,,,0.00,meteohub,2013-02-26 06:43:00,
2013-02-26 00:48:00,40.8,21.2,29.07,ESE,115,5.0,9.0,45,0.00,,,0.00,meteohub,2013-02-26 06:48:00,
2013-02-26 00:53:00,40.8,21.2,29.07,NW,310,3.0,9.0,45,0.00,,,0.00,meteohub,2013-02-26 06:53:00,
2013-02-26 00:58:00,40.8,21.2,29.07,NW,306,0.0,8.0,45,0.00,,,0.00,meteohub,2013-02-26 06:58:00,
2013-02-26 01:03:00,40.8,21.2,29.07,North,6,3.0,8.0,45,0.00,,,0.00,meteohub,2013-02-26 07:03:00,
2013-02-26 01:09:00,40.8,20.7,29.07,NW,326,3.0,6.0,44,0.00,,,0.00,meteohub,2013-02-26 07:09:00,
2013-02-26 01:14:00,40.8,20.7,29.07,NW,324,3.0,8.0,44,0.00,,,0.00,meteohub,2013-02-26 07:14:00,
2013-02-26 01:19:00,40.8,20.7,29.07,WSW,255,4.0,8.0,44,0.00,,,0.00,meteohub,2013-02-26 07:19:00,
2013-02-26 01:24:00,40.6,20.5,29.07,East,91,3.0,8.0,44,0.00,,,0.00,meteohub,2013-02-26 07:24:00,
2013-02-26 01:29:00,40.6,20.5,29.10,NNW,337,5.0,5.0,44,0.00,,,0.00,meteohub,2013-02-26 07:29:00,
2013-02-26 01:34:00,40.6,20.5,29.10,NW,312,4.0,7.0,44,0.00,,,0.00,meteohub,2013-02-26 07:34:00,
2013-02-26 01:39:00,40.6,20.5,29.10,NW,311,6.0,7.0,44,0.00,,,0.00,meteohub,2013-02-26 07:39:00,
2013-02-26 01:44:00,40.6,20.5,29.07,SSW,213,4.0,7.0,44,0.00,,,0.00,meteohub,2013-02-26 07:44:00,
2013-02-26 01:49:00,40.6,20.5,29.07,North,357,5.0,7.0,44,0.00,,,0.00,meteohub,2013-02-26 07:49:00,
2013-02-26 01:54:00,40.6,20.5,29.07,NW,323,4.0,7.0,44,0.00,,,0.00,meteohub,2013-02-26 07:54:00,
2013-02-26 01:59:00,40.6,20.5,29.10,NNW,337,4.0,8.0,44,0.00,,,0.00,meteohub,2013-02-26 07:59:00,
2013-02-26 02:04:00,40.6,20.5,29.10,WNW,303,4.0,8.0,44,0.00,,,0.00,meteohub,2013-02-26 08:04:00,
2013-02-26 02:09:00,40.6,20.5,29.10,NW,316,0.0,8.0,44,0.00,,,0.00,meteohub,2013-02-26 08:09:00,
2013-02-26 02:14:00,40.6,20.5,29.10,West,272,3.0,8.0,44,0.00,,,0.00,meteohub,2013-02-26 08:14:00,
2013-02-26 02:19:00,40.6,20.5,29.10,NW,312,4.0,8.0,44,0.00,,,0.00,meteohub,2013-02-26 08:19:00,
2013-02-26 02:24:00,40.6,20.5,29.10,WNW,288,3.0,5.0,44,0.00,,,0.00,meteohub,2013-02-26 08:24:00,
2013-02-26 02:29:00,40.6,20.5,29.10,WNW,300,2.0,7.0,44,0.00,,,0.00,meteohub,2013-02-26 08:29:00,
2013-02-26 02:34:00,40.6,20.5,29.10,NW,311,3.0,7.0,44,0.00,,,0.00,meteohub,2013-02-26 08:34:00,
2013-02-26 02:39:00,40.6,21.0,29.10,NE,48,4.0,9.0,45,0.00,,,0.00,meteohub,2013-02-26 08:39:00,
2013-02-26 02:44:00,40.6,20.5,29.10,NW,324,4.0,9.0,44,0.00,,,0.00,meteohub,2013-02-26 08:44:00,
2013-02-26 02:50:00,40.6,20.5,29.10,NW,313,5.0,9.0,44,0.00,,,0.00,meteohub,2013-02-26 08:50:00,
2013-02-26 02:55:00,40.6,20.5,29.10,NW,312,4.0,11.0,44,0.00,,,0.00,meteohub,2013-02-26 08:55:00,
2013-02-26 03:00:00,40.6,20.5,29.10,NNW,334,3.0,11.0,44,0.00,,,0.00,meteohub,2013-02-26 09:00:00,
2013-02-26 03:05:00,40.6,20.5,29.10,NW,311,3.0,8.0,44,0.00,,,0.00,meteohub,2013-02-26 09:05:00,
2013-02-26 03:10:00,40.8,20.7,29.10,NNW,329,4.0,7.0,44,0.00,,,0.00,meteohub,2013-02-26 09:10:00,
2013-02-26 03:15:00,40.8,20.1,29.10,NW,304,4.0,10.0,43,0.00,,,0.00,meteohub,2013-02-26 09:15:00,
2013-02-26 03:20:00,40.8,20.1,29.10,NW,311,8.0,10.0,43,0.00,,,0.00,meteohub,2013-02-26 09:20:00,
2013-02-26 03:25:00,40.8,20.1,29.10,WSW,252,3.0,8.0,43,0.00,,,0.00,meteohub,2013-02-26 09:25:00,
2013-02-26 03:30:00,40.8,20.1,29.10,WSW,252,0.0,8.0,43,0.00,,,0.00,meteohub,2013-02-26 09:30:00,
2013-02-26 03:35:00,40.8,20.1,29.10,NNW,333,6.0,8.0,43,0.00,,,0.00,meteohub,2013-02-26 09:35:00,
2013-02-26 03:40:00,40.6,19.9,29.10,NNW,328,4.0,6.0,43,0.00,,,0.00,meteohub,2013-02-26 09:40:00,
2013-02-26 03:45:00,40.6,19.9,29.10,WSW,240,3.0,6.0,43,0.00,,,0.00,meteohub,2013-02-26 09:45:00,
2013-02-26 03:50:00,40.8,20.1,29.10,North,357,3.0,7.0,43,0.00,,,0.00,meteohub,2013-02-26 09:50:00,
2013-02-26 03:55:00,40.6,19.9,29.10,NW,311,2.0,7.0,43,0.00,,,0.00,meteohub,2013-02-26 09:55:00,
2013-02-26 04:00:00,40.6,19.9,29.10,WNW,294,2.0,7.0,43,0.00,,,0.00,meteohub,2013-02-26 10:00:00,
2013-02-26 04:05:00,40.6,19.9,29.10,NNW,346,0.0,8.0,43,0.00,,,0.00,meteohub,2013-02-26 10:05:00,
2013-02-26 04:10:00,40.6,19.9,29.10,NW,308,6.0,8.0,43,0.00,,,0.00,meteohub,2013-02-26 10:10:00,
2013-02-26 04:15:00,40.6,19.9,29.10,WNW,293,3.0,6.0,43,0.00,,,0.00,meteohub,2013-02-26 10:15:00,
2013-02-26 04:20:00,40.8,20.1,29.10,NNW,339,2.0,6.0,43,0.00,,,0.00,meteohub,2013-02-26 10:20:00,
2013-02-26 04:26:00,40.8,20.1,29.10,NW,312,5.0,8.0,43,0.00,,,0.00,meteohub,2013-02-26 10:26:00,
2013-02-26 04:31:00,40.8,20.1,29.10,West,281,4.0,8.0,43,0.00,,,0.00,meteohub,2013-02-26 10:31:00,
2013-02-26 04:36:00,40.8,20.1,29.10,West,281,4.0,8.0,43,0.00,,,0.00,meteohub,2013-02-26 10:36:00,
2013-02-26 04:41:00,40.8,20.1,29.10,SW,220,5.0,6.0,43,0.00,,,0.00,meteohub,2013-02-26 10:41:00,
2013-02-26 04:46:00,40.8,20.1,29.10,West,275,3.0,6.0,43,0.00,,,0.00,meteohub,2013-02-26 10:46:00,
2013-02-26 04:51:00,40.8,20.1,29.10,SSE,166,5.0,6.0,43,0.00,,,0.00,meteohub,2013-02-26 10:51:00,
2013-02-26 04:56:00,40.6,19.9,29.10,SW,224,3.0,7.0,43,0.00,,,0.00,meteohub,2013-02-26 10:56:00,
2013-02-26 05:01:00,40.6,19.9,29.13,West,263,2.0,7.0,43,0.00,,,0.00,meteohub,2013-02-26 11:01:00,
2013-02-26 05:06:00,40.6,19.9,29.13,WSW,251,3.0,5.0,43,0.00,,,0.00,meteohub,2013-02-26 11:06:00,
2013-02-26 05:11:00,40.6,19.9,29.13,North,353,4.0,7.0,43,0.00,,,0.00,meteohub,2013-02-26 11:11:00,
2013-02-26 05:16:00,40.6,19.9,29.13,NNW,330,3.0,7.0,43,0.00,,,0.00,meteohub,2013-02-26 11:16:00,
2013-02-26 05:21:00,40.6,20.5,29.13,WNW,289,3.0,6.0,44,0.00,,,0.00,meteohub,2013-02-26 11:21:00,
2013-02-26 05:26:00,40.6,19.9,29.13,NW,305,2.0,6.0,43,0.00,,,0.00,meteohub,2013-02-26 11:26:00,
2013-02-26 05:31:00,40.5,20.3,29.13,North,9,3.0,6.0,44,0.00,,,0.00,meteohub,2013-02-26 11:31:00,
2013-02-26 05:36:00,40.5,20.3,29.13,NW,313,3.0,5.0,44,0.00,,,0.00,meteohub,2013-02-26 11:36:00,
2013-02-26 05:41:00,40.3,20.1,29.13,NW,310,3.0,6.0,44,0.00,,,0.00,meteohub,2013-02-26 11:41:00,
2013-02-26 05:46:00,40.3,20.1,29.13,NW,323,3.0,6.0,44,0.00,,,0.00,meteohub,2013-02-26 11:46:00,
2013-02-26 05:51:00,40.3,20.1,29.13,WNW,282,0.0,5.0,44,0.00,,,0.00,meteohub,2013-02-26 11:51:00,
2013-02-26 05:56:00,40.3,20.1,29.13,North,0,2.0,5.0,44,0.00,,,0.00,meteohub,2013-02-26 11:56:00,
2013-02-26 06:02:00,40.3,20.1,29.16,West,281,3.0,4.0,44,0.00,,,0.00,meteohub,2013-02-26 12:02:00,
2013-02-26 06:07:00,40.1,19.9,29.16,NW,324,3.0,5.0,44,0.00,,,0.00,meteohub,2013-02-26 12:07:00,
2013-02-26 06:12:00,40.1,19.9,29.16,NNW,340,0.0,6.0,44,0.00,,,0.00,meteohub,2013-02-26 12:12:00,
2013-02-26 06:17:00,40.1,19.9,29.16,NNW,337,3.0,6.0,44,0.00,,,0.00,meteohub,2013-02-26 12:17:00,
2013-02-26 06:22:00,40.1,19.9,29.16,NNW,327,0.0,8.0,44,0.00,,,0.00,meteohub,2013-02-26 12:22:00,
2013-02-26 06:27:00,39.9,19.8,29.16,NNW,328,3.0,8.0,44,0.00,,,0.00,meteohub,2013-02-26 12:27:00,
2013-02-26 06:32:00,39.9,20.3,29.16,North,349,4.0,4.0,45,0.00,,,0.00,meteohub,2013-02-26 12:32:00,
2013-02-26 06:37:00,39.9,20.3,29.16,SSW,199,3.0,4.0,45,0.00,,,0.00,meteohub,2013-02-26 12:37:00,
2013-02-26 06:42:00,39.9,20.3,29.16,NNW,338,0.0,7.0,45,0.00,,,0.00,meteohub,2013-02-26 12:42:00,
2013-02-26 06:47:00,39.9,20.3,29.16,WNW,297,2.0,7.0,45,0.00,,,0.00,meteohub,2013-02-26 12:47:00,
2013-02-26 06:52:00,39.9,20.3,29.16,NW,315,0.0,7.0,45,0.00,,,0.00,meteohub,2013-02-26 12:52:00,
2013-02-26 06:57:00,39.9,20.3,29.16,SW,230,0.0,5.0,45,0.00,,,0.00,meteohub,2013-02-26 12:57:00,
2013-02-26 07:02:00,39.7,20.1,29.16,WNW,298,0.0,5.0,45,0.00,,,0.00,meteohub,2013-02-26 13:02:00,
2013-02-26 07:07:00,39.7,20.1,29.16,NW,320,0.0,5.0,45,0.00,,,0.00,meteohub,2013-02-26 13:07:00,
2013-02-26 07:12:00,39.7,20.1,29.16,SW,219,0.0,5.0,45,0.00,,,0.00,meteohub,2013-02-26 13:12:00,
2013-02-26 07:17:00,39.7,20.1,29.19,SW,231,3.0,4.0,45,0.00,,,0.00,meteohub,2013-02-26 13:17:00,
2013-02-26 07:22:00,39.7,20.1,29.19,NW,309,2.0,4.0,45,0.00,,,0.00,meteohub,2013-02-26 13:22:00,
2013-02-26 07:27:00,39.7,20.1,29.19,West,269,0.0,4.0,45,0.00,,,0.00,meteohub,2013-02-26 13:27:00,
2013-02-26 07:32:00,39.9,20.3,29.19,NW,311,4.0,5.0,45,0.00,,,0.00,meteohub,2013-02-26 13:32:00,
2013-02-26 07:37:00,39.9,20.3,29.19,NW,316,3.0,5.0,45,0.00,,,0.00,meteohub,2013-02-26 13:37:00,
2013-02-26 07:42:00,39.9,20.3,29.19,West,274,3.0,5.0,45,0.00,,,0.00,meteohub,2013-02-26 13:42:00,
2013-02-26 07:47:00,40.1,20.5,29.19,NNW,333,3.0,5.0,45,0.00,,,0.00,meteohub,2013-02-26 13:47:00,
2013-02-26 07:52:00,40.3,20.7,29.19,NW,316,0.0,6.0,45,0.00,,,0.00,meteohub,2013-02-26 13:52:00,
2013-02-26 07:57:00,40.3,20.7,29.19,WNW,299,0.0,6.0,45,0.00,,,0.00,meteohub,2013-02-26 13:57:00,
2013-02-26 08:02:00,40.5,20.8,29.22,ENE,65,4.0,6.0,45,0.00,,,0.00,meteohub,2013-02-26 14:02:00,
2013-02-26 08:07:00,40.5,20.8,29.22,NW,325,3.0,6.0,45,0.00,,,0.00,meteohub,2013-02-26 14:07:00,
2013-02-26 08:12:00,40.6,21.0,29.22,NW,307,2.0,6.0,45,0.00,,,0.00,meteohub,2013-02-26 14:12:00,
2013-02-26 08:17:00,40.8,21.2,29.19,NW,315,3.0,6.0,45,0.00,,,0.00,meteohub,2013-02-26 14:17:00,
2013-02-26 08:22:00,41.0,20.8,29.19,WNW,291,3.0,6.0,44,0.00,,,0.00,meteohub,2013-02-26 14:22:00,
2013-02-26 08:27:00,41.0,20.8,29.19,NNW,329,4.0,6.0,44,0.00,,,0.00,meteohub,2013-02-26 14:27:00,
2013-02-26 08:32:00,41.2,20.8,29.19,NW,320,3.0,6.0,44,0.00,,,0.00,meteohub,2013-02-26 14:32:00,
2013-02-26 08:37:00,41.5,21.2,29.19,North,353,4.0,6.0,44,0.00,,,0.00,meteohub,2013-02-26 14:37:00,
2013-02-26 08:42:00,41.5,21.2,29.19,NW,306,3.0,6.0,44,0.00,,,0.00,meteohub,2013-02-26 14:42:00,
2013-02-26 08:47:00,41.7,21.4,29.22,ENE,65,0.0,5.0,44,0.00,,,0.00,meteohub,2013-02-26 14:47:00,
2013-02-26 08:52:00,41.9,21.6,29.22,NNW,344,4.0,5.0,44,0.00,,,0.00,meteohub,2013-02-26 14:52:00,
2013-02-26 08:57:00,42.1,21.2,29.22,ENE,71,0.0,5.0,43,0.00,,,0.00,meteohub,2013-02-26 14:57:00,
2013-02-26 09:02:00,42.4,21.6,29.22,NNW,335,0.0,5.0,43,0.00,,,0.00,meteohub,2013-02-26 15:02:00,
2013-02-26 09:07:00,42.4,21.0,29.22,WNW,298,3.0,5.0,42,0.00,,,0.00,meteohub,2013-02-26 15:07:00,
2013-02-26 09:12:00,43.0,20.8,29.22,North,357,5.0,5.0,41,0.00,,,0.00,meteohub,2013-02-26 15:12:00,
2013-02-26 09:17:00,43.0,20.8,29.22,WNW,291,0.0,6.0,41,0.00,,,0.00,meteohub,2013-02-26 15:17:00,
2013-02-26 09:23:00,43.3,21.2,29.22,NW,325,3.0,6.0,41,0.00,,,0.00,meteohub,2013-02-26 15:23:00,
2013-02-26 09:28:00,43.7,21.0,29.22,WNW,302,5.0,6.0,40,0.00,,,0.00,meteohub,2013-02-26 15:28:00,
2013-02-26 09:33:00,44.2,21.4,29.22,NW,320,3.0,8.0,40,0.00,,,0.00,meteohub,2013-02-26 15:33:00,
2013-02-26 09:38:00,44.6,21.7,29.22,NW,305,5.0,8.0,40,0.00,,,0.00,meteohub,2013-02-26 15:38:00,
2013-02-26 09:43:00,44.8,21.4,29.22,North,353,3.0,7.0,39,0.00,,,0.00,meteohub,2013-02-26 15:43:00,
2013-02-26 09:48:00,44.8,21.4,29.22,NW,309,3.0,8.0,39,0.00,,,0.00,meteohub,2013-02-26 15:48:00,
2013-02-26 09:53:00,45.1,21.7,29.22,NW,322,2.0,8.0,39,0.00,,,0.00,meteohub,2013-02-26 15:53:00,
2013-02-26 09:58:00,46.0,22.5,29.22,West,268,3.0,8.0,39,0.00,,,0.00,meteohub,2013-02-26 15:58:00,
2013-02-26 10:03:00,46.8,22.5,29.22,NW,326,0.0,8.0,38,0.00,,,0.00,meteohub,2013-02-26 16:03:00,
2013-02-26 10:08:00,47.3,23.0,29.22,East,89,4.0,6.0,38,0.00,,,0.00,meteohub,2013-02-26 16:08:00,
2013-02-26 10:13:00,47.7,22.6,29.22,NW,311,3.0,6.0,37,0.00,,,0.00,meteohub,2013-02-26 16:13:00,
2013-02-26 10:18:00,48.0,23.0,29.22,NW,312,0.0,6.0,37,0.00,,,0.00,meteohub,2013-02-26 16:18:00,
2013-02-26 10:23:00,48.2,23.2,29.22,NW,322,3.0,5.0,37,0.00,,,0.00,meteohub,2013-02-26 16:23:00,
2013-02-26 10:28:00,48.4,23.4,29.25,WNW,297,3.0,5.0,37,0.00,,,0.00,meteohub,2013-02-26 16:28:00,
2013-02-26 10:33:00,48.7,23.0,29.25,SW,232,2.0,5.0,36,0.00,,,0.00,meteohub,2013-02-26 16:33:00,
2013-02-26 10:39:00,48.7,23.0,29.25,North,0,3.0,7.0,36,0.00,,,0.00,meteohub,2013-02-26 16:39:00,
2013-02-26 10:44:00,48.9,22.5,29.25,West,266,4.0,7.0,35,0.00,,,0.00,meteohub,2013-02-26 16:44:00,
2013-02-26 10:49:00,49.3,22.8,29.25,WNW,283,3.0,7.0,35,0.00,,,0.00,meteohub,2013-02-26 16:49:00,
2013-02-26 10:54:00,49.5,22.3,29.25,NW,317,5.0,6.0,34,0.00,,,0.00,meteohub,2013-02-26 16:54:00,
2013-02-26 10:59:00,49.8,23.2,29.25,NW,312,4.0,7.0,35,0.00,,,0.00,meteohub,2013-02-26 16:59:00,
2013-02-26 11:04:00,50.0,22.1,29.25,NW,304,4.0,7.0,33,0.00,,,0.00,meteohub,2013-02-26 17:04:00,
2013-02-26 11:09:00,50.0,22.6,29.25,NW,326,0.0,7.0,34,0.00,,,0.00,meteohub,2013-02-26 17:09:00,
2013-02-26 11:14:00,50.5,21.7,29.25,North,11,4.0,6.0,32,0.00,,,0.00,meteohub,2013-02-26 17:14:00,
2013-02-26 11:19:00,50.5,22.5,29.25,WSW,248,0.0,6.0,33,0.00,,,0.00,meteohub,2013-02-26 17:19:00,
2013-02-26 11:24:00,51.1,22.3,29.25,NW,319,3.0,8.0,32,0.00,,,0.00,meteohub,2013-02-26 17:24:00,
2013-02-26 11:29:00,51.3,22.5,29.25,NW,318,0.0,8.0,32,0.00,,,0.00,meteohub,2013-02-26 17:29:00,
2013-02-26 11:34:00,51.6,22.6,29.25,WSW,251,0.0,6.0,32,0.00,,,0.00,meteohub,2013-02-26 17:34:00,
2013-02-26 11:39:00,51.8,22.1,29.25,NW,316,3.0,6.0,31,0.00,,,0.00,meteohub,2013-02-26 17:39:00,
2013-02-26 11:44:00,51.8,22.1,29.25,WNW,287,0.0,6.0,31,0.00,,,0.00,meteohub,2013-02-26 17:44:00,
2013-02-26 11:50:00,52.0,22.3,29.25,NW,319,4.0,6.0,31,0.00,,,0.00,meteohub,2013-02-26 17:50:00,
2013-02-26 11:55:00,52.3,22.6,29.25,NNW,333,3.0,6.0,31,0.00,,,0.00,meteohub,2013-02-26 17:55:00,
2013-02-26 12:00:00,52.3,21.7,29.25,NNW,343,3.0,6.0,30,0.00,,,0.00,meteohub,2013-02-26 18:00:00,
2013-02-26 12:05:00,52.5,22.8,29.25,NW,314,2.0,8.0,31,0.00,,,0.00,meteohub,2013-02-26 18:05:00,
2013-02-26 12:10:00,53.4,23.5,29.25,North,11,3.0,8.0,31,0.00,,,0.00,meteohub,2013-02-26 18:10:00,
2013-02-26 12:15:00,54.1,23.4,29.25,South,176,3.0,8.0,30,0.00,,,0.00,meteohub,2013-02-26 18:15:00,
2013-02-26 12:20:00,54.5,22.8,29.25,WNW,300,3.0,6.0,29,0.00,,,0.00,meteohub,2013-02-26 18:20:00,
2013-02-26 12:25:00,54.5,22.1,29.25,NW,309,2.0,6.0,28,0.00,,,0.00,meteohub,2013-02-26 18:25:00,
2013-02-26 12:30:00,54.3,21.9,29.25,NW,319,4.0,6.0,28,0.00,,,0.00,meteohub,2013-02-26 18:30:00,
2013-02-26 12:35:00,54.3,21.9,29.25,NW,313,7.0,8.0,28,0.00,,,0.00,meteohub,2013-02-26 18:35:00,
2013-02-26 12:40:00,54.1,21.7,29.25,North,0,0.0,8.0,28,0.00,,,0.00,meteohub,2013-02-26 18:40:00,
2013-02-26 12:45:00,54.5,22.1,29.25,NNE,27,6.0,8.0,28,0.00,,,0.00,meteohub,2013-02-26 18:45:00,
2013-02-26 12:50:00,54.9,22.3,29.25,WNW,301,2.0,8.0,28,0.00,,,0.00,meteohub,2013-02-26 18:50:00,
2013-02-26 12:55:00,54.9,22.3,29.25,NNW,330,4.0,8.0,28,0.00,,,0.00,meteohub,2013-02-26 18:55:00,
2013-02-26 13:00:00,54.9,22.3,29.25,North,350,5.0,8.0,28,0.00,,,0.00,meteohub,2013-02-26 19:00:00,
2013-02-26 13:06:00,55.0,21.7,29.25,NNE,33,2.0,8.0,27,0.00,,,0.00,meteohub,2013-02-26 19:06:00,
2013-02-26 13:11:00,55.0,21.7,29.25,North,4,2.0,7.0,27,0.00,,,0.00,meteohub,2013-02-26 19:11:00,
2013-02-26 13:16:00,55.4,21.9,29.22,North,357,6.0,7.0,27,0.00,,,0.00,meteohub,2013-02-26 19:16:00,
2013-02-26 13:21:00,55.8,22.3,29.22,SW,230,3.0,6.0,27,0.00,,,0.00,meteohub,2013-02-26 19:21:00,
2013-02-26 13:26:00,56.1,22.6,29.22,NNW,329,4.0,6.0,27,0.00,,,0.00,meteohub,2013-02-26 19:26:00,
2013-02-26 13:31:00,55.9,22.5,29.22,NW,326,2.0,6.0,27,0.00,,,0.00,meteohub,2013-02-26 19:31:00,
2013-02-26 13:36:00,56.3,22.8,29.22,NW,314,2.0,5.0,27,0.00,,,0.00,meteohub,2013-02-26 19:36:00,
2013-02-26 13:41:00,56.3,22.8,29.22,NNW,327,3.0,6.0,27,0.00,,,0.00,meteohub,2013-02-26 19:41:00,
2013-02-26 13:46:00,56.8,23.2,29.22,West,259,0.0,6.0,27,0.00,,,0.00,meteohub,2013-02-26 19:46:00,
2013-02-26 13:51:00,57.2,22.6,29.22,WSW,255,3.0,8.0,26,0.00,,,0.00,meteohub,2013-02-26 19:51:00,
2013-02-26 13:56:00,57.6,23.0,29.22,NNW,327,3.0,8.0,26,0.00,,,0.00,meteohub,2013-02-26 19:56:00,
2013-02-26 14:01:00,57.4,22.8,29.22,NNE,33,6.0,8.0,26,0.00,,,0.00,meteohub,2013-02-26 20:01:00,
2013-02-26 14:06:00,57.2,22.6,29.22,NW,316,3.0,6.0,26,0.00,,,0.00,meteohub,2013-02-26 20:06:00,
2013-02-26 14:11:00,57.2,22.6,29.22,North,353,0.0,6.0,26,0.00,,,0.00,meteohub,2013-02-26 20:11:00,
2013-02-26 14:17:00,57.2,22.6,29.22,WSW,253,0.0,6.0,26,0.00,,,0.00,meteohub,2013-02-26 20:17:00,
2013-02-26 14:22:00,57.0,22.5,29.22,East,86,2.0,5.0,26,0.00,,,0.00,meteohub,2013-02-26 20:22:00,
2013-02-26 14:27:00,57.0,22.5,29.22,West,270,0.0,5.0,26,0.00,,,0.00,meteohub,2013-02-26 20:27:00,
2013-02-26 14:32:00,56.8,22.3,29.19,North,7,2.0,5.0,26,0.00,,,0.00,meteohub,2013-02-26 20:32:00,
2013-02-26 14:37:00,56.7,22.1,29.19,NW,313,3.0,5.0,26,0.00,,,0.00,meteohub,2013-02-26 20:37:00,
2013-02-26 14:42:00,56.7,22.1,29.19,SW,226,2.0,5.0,26,0.00,,,0.00,meteohub,2013-02-26 20:42:00,
2013-02-26 14:47:00,56.8,22.3,29.19,SE,131,6.0,6.0,26,0.00,,,0.00,meteohub,2013-02-26 20:47:00,
2013-02-26 14:52:00,57.0,22.5,29.19,NW,312,0.0,6.0,26,0.00,,,0.00,meteohub,2013-02-26 20:52:00,
2013-02-26 14:57:00,57.0,22.5,29.19,ENE,67,4.0,6.0,26,0.00,,,0.00,meteohub,2013-02-26 20:57:00,
2013-02-26 15:02:00,57.0,22.5,29.19,WNW,294,0.0,6.0,26,0.00,,,0.00,meteohub,2013-02-26 21:02:00,
2013-02-26 15:07:00,57.2,22.6,29.19,NW,310,0.0,4.0,26,0.00,,,0.00,meteohub,2013-02-26 21:07:00,
2013-02-26 15:12:00,57.0,22.5,29.19,NNE,27,3.0,4.0,26,0.00,,,0.00,meteohub,2013-02-26 21:12:00,
2013-02-26 15:17:00,56.8,22.3,29.22,West,279,0.0,4.0,26,0.00,,,0.00,meteohub,2013-02-26 21:17:00,
2013-02-26 15:22:00,56.8,22.3,29.22,NW,311,3.0,4.0,26,0.00,,,0.00,meteohub,2013-02-26 21:22:00,
2013-02-26 15:27:00,57.0,22.5,29.22,WNW,302,0.0,4.0,26,0.00,,,0.00,meteohub,2013-02-26 21:27:00,
2013-02-26 15:32:00,56.8,22.3,29.22,ENE,61,4.0,4.0,26,0.00,,,0.00,meteohub,2013-02-26 21:32:00,
2013-02-26 15:37:00,56.8,22.3,29.22,North,10,0.0,5.0,26,0.00,,,0.00,meteohub,2013-02-26 21:37:00,
2013-02-26 15:42:00,56.8,22.3,29.22,NW,316,2.0,5.0,26,0.00,,,0.00,meteohub,2013-02-26 21:42:00,
2013-02-26 15:47:00,56.8,22.3,29.22,WNW,294,3.0,5.0,26,0.00,,,0.00,meteohub,2013-02-26 21:47:00,
2013-02-26 15:52:00,56.8,22.3,29.22,NNW,348,0.0,4.0,26,0.00,,,0.00,meteohub,2013-02-26 21:52:00,
2013-02-26 15:57:00,56.8,22.3,29.22,North,353,0.0,4.0,26,0.00,,,0.00,meteohub,2013-02-26 21:57:00,
2013-02-26 16:02:00,57.0,22.5,29.22,NE,48,0.0,5.0,26,0.00,,,0.00,meteohub,2013-02-26 22:02:00,
2013-02-26 16:07:00,57.0,22.5,29.22,WNW,288,2.0,5.0,26,0.00,,,0.00,meteohub,2013-02-26 22:07:00,
2013-02-26 16:12:00,57.2,21.7,29.22,WNW,297,0.0,4.0,25,0.00,,,0.00,meteohub,2013-02-26 22:12:00,
2013-02-26 16:17:00,57.2,21.7,29.22,NNW,348,3.0,3.0,25,0.00,,,0.00,meteohub,2013-02-26 22:17:00,
2013-02-26 16:22:00,57.2,21.7,29.22,NW,312,3.0,3.0,25,0.00,,,0.00,meteohub,2013-02-26 22:22:00,
2013-02-26 16:27:00,57.6,21.9,29.22,West,269,0.0,3.0,25,0.00,,,0.00,meteohub,2013-02-26 22:27:00,
2013-02-26 16:32:00,57.6,21.9,29.22,WNW,297,0.0,4.0,25,0.00,,,0.00,meteohub,2013-02-26 22:32:00,
2013-02-26 16:37:00,57.6,21.9,29.22,NW,315,0.0,4.0,25,0.00,,,0.00,meteohub,2013-02-26 22:37:00,
2013-02-26 16:42:00,57.4,21.9,29.22,South,187,0.0,4.0,25,0.00,,,0.00,meteohub,2013-02-26 22:42:00,
2013-02-26 16:47:00,57.4,21.9,29.22,West,259,0.0,4.0,25,0.00,,,0.00,meteohub,2013-02-26 22:47:00,
2013-02-26 16:52:00,57.4,21.9,29.22,West,266,0.0,3.0,25,0.00,,,0.00,meteohub,2013-02-26 22:52:00,
2013-02-26 16:57:00,57.4,21.9,29.22,West,266,0.0,3.0,25,0.00,,,0.00,meteohub,2013-02-26 22:57:00,
2013-02-26 17:02:00,57.4,21.9,29.22,SE,145,0.0,2.0,25,0.00,,,0.00,meteohub,2013-02-26 23:02:00,
2013-02-26 17:07:00,57.2,21.7,29.22,North,1,0.0,4.0,25,0.00,,,0.00,meteohub,2013-02-26 23:07:00,
2013-02-26 17:12:00,57.0,21.6,29.22,NW,323,0.0,4.0,25,0.00,,,0.00,meteohub,2013-02-26 23:12:00,
2013-02-26 17:17:00,57.0,21.6,29.22,WSW,243,0.0,4.0,25,0.00,,,0.00,meteohub,2013-02-26 23:17:00,
2013-02-26 17:22:00,56.8,21.4,29.22,WSW,243,0.0,3.0,25,0.00,,,0.00,meteohub,2013-02-26 23:22:00,
2013-02-26 17:27:00,56.8,22.3,29.22,NNW,344,4.0,4.0,26,0.00,,,0.00,meteohub,2013-02-26 23:27:00,
2013-02-26 17:32:00,56.7,21.2,29.22,NNW,342,0.0,4.0,25,0.00,,,0.00,meteohub,2013-02-26 23:32:00,
2013-02-26 17:37:00,56.5,21.0,29.22,NNW,343,0.0,4.0,25,0.00,,,0.00,meteohub,2013-02-26 23:37:00,
2013-02-26 17:42:00,56.5,21.0,29.22,NNW,342,0.0,4.0,25,0.00,,,0.00,meteohub,2013-02-26 23:42:00,
2013-02-26 17:47:00,56.5,21.0,29.22,NNW,342,0.0,0.0,25,0.00,,,0.00,meteohub,2013-02-26 23:47:00,
2013-02-26 17:52:00,56.3,20.8,29.22,NW,318,0.0,0.0,25,0.00,,,0.00,meteohub,2013-02-26 23:52:00,
2013-02-26 17:57:00,56.1,20.8,29.22,North,0,0.0,0.0,25,0.00,,,0.00,meteohub,2013-02-26 23:57:00,
2013-02-26 18:02:00,55.8,20.5,29.22,North,357,0.0,5.0,25,0.00,,,0.00,meteohub,2013-02-27 00:02:00,
2013-02-26 18:07:00,55.6,20.3,29.22,North,357,0.0,5.0,25,0.00,,,0.00,meteohub,2013-02-27 00:07:00,
2013-02-26 18:12:00,55.2,20.8,29.22,North,357,0.0,0.0,26,0.00,,,0.00,meteohub,2013-02-27 00:12:00,
2013-02-26 18:17:00,54.9,20.7,29.22,North,357,0.0,0.0,26,0.00,,,0.00,meteohub,2013-02-27 00:17:00,
2013-02-26 18:22:00,54.7,20.5,29.22,North,357,0.0,0.0,26,0.00,,,0.00,meteohub,2013-02-27 00:22:00,
2013-02-26 18:27:00,54.3,20.1,29.22,North,357,0.0,0.0,26,0.00,,,0.00,meteohub,2013-02-27 00:27:00,
2013-02-26 18:32:00,53.8,19.8,29.22,North,357,0.0,0.0,26,0.00,,,0.00,meteohub,2013-02-27 00:32:00,
2013-02-26 18:37:00,53.4,20.3,29.22,North,357,0.0,0.0,27,0.00,,,0.00,meteohub,2013-02-27 00:37:00,
2013-02-26 18:42:00,52.9,19.8,29.22,North,357,0.0,0.0,27,0.00,,,0.00,meteohub,2013-02-27 00:42:00,
2013-02-26 18:47:00,52.5,19.4,29.22,North,357,0.0,0.0,27,0.00,,,0.00,meteohub,2013-02-27 00:47:00,
2013-02-26 18:52:00,52.0,19.0,29.22,North,357,0.0,0.0,27,0.00,,,0.00,meteohub,2013-02-27 00:52:00,
2013-02-26 18:57:00,51.4,18.5,29.22,North,357,0.0,0.0,27,0.00,,,0.00,meteohub,2013-02-27 00:57:00,
2013-02-26 19:02:00,50.9,18.1,29.22,North,357,0.0,0.0,27,0.00,,,0.00,meteohub,2013-02-27 01:02:00,
2013-02-26 19:07:00,50.4,17.6,29.22,North,357,0.0,0.0,27,0.00,,,0.00,meteohub,2013-02-27 01:07:00,
2013-02-26 19:12:00,50.0,18.1,29.22,North,357,0.0,0.0,28,0.00,,,0.00,meteohub,2013-02-27 01:12:00,
2013-02-26 19:17:00,49.6,17.8,29.22,North,357,0.0,0.0,28,0.00,,,0.00,meteohub,2013-02-27 01:17:00,
2013-02-26 19:22:00,49.3,18.3,29.22,North,357,0.0,0.0,29,0.00,,,0.00,meteohub,2013-02-27 01:22:00,
2013-02-26 19:27:00,48.9,18.0,29.22,North,357,0.0,0.0,29,0.00,,,0.00,meteohub,2013-02-27 01:27:00,
2013-02-26 19:32:00,48.6,18.5,29.22,North,357,0.0,0.0,30,0.00,,,0.00,meteohub,2013-02-27 01:32:00,
2013-02-26 19:37:00,48.2,18.1,29.22,North,357,0.0,0.0,30,0.00,,,0.00,meteohub,2013-02-27 01:37:00,
2013-02-26 19:42:00,47.8,18.7,29.22,North,357,0.0,0.0,31,0.00,,,0.00,meteohub,2013-02-27 01:42:00,
2013-02-26 19:47:00,47.7,19.2,29.22,North,357,0.0,0.0,32,0.00,,,0.00,meteohub,2013-02-27 01:47:00,
2013-02-26 19:52:00,47.3,18.9,29.22,North,357,0.0,0.0,32,0.00,,,0.00,meteohub,2013-02-27 01:52:00,
2013-02-26 19:57:00,46.9,19.4,29.22,North,357,0.0,0.0,33,0.00,,,0.00,meteohub,2013-02-27 01:57:00,
2013-02-26 20:02:00,46.6,19.0,29.22,North,357,0.0,0.0,33,0.00,,,0.00,meteohub,2013-02-27 02:02:00,
2013-02-26 20:07:00,46.4,19.6,29.22,North,357,0.0,0.0,34,0.00,,,0.00,meteohub,2013-02-27 02:07:00,
2013-02-26 20:12:00,46.0,20.5,29.22,North,357,0.0,0.0,36,0.00,,,0.00,meteohub,2013-02-27 02:12:00,
2013-02-26 20:17:00,45.9,21.0,29.25,North,357,0.0,0.0,37,0.00,,,0.00,meteohub,2013-02-27 02:17:00,
2013-02-26 20:22:00,45.7,20.8,29.25,North,357,0.0,0.0,37,0.00,,,0.00,meteohub,2013-02-27 02:22:00,
2013-02-26 20:27:00,45.5,21.4,29.25,North,357,0.0,0.0,38,0.00,,,0.00,meteohub,2013-02-27 02:27:00,
2013-02-26 20:33:00,45.3,21.2,29.25,North,357,0.0,0.0,38,0.00,,,0.00,meteohub,2013-02-27 02:33:00,
2013-02-26 20:38:00,45.0,20.8,29.25,North,357,0.0,0.0,38,0.00,,,0.00,meteohub,2013-02-27 02:38:00,
2013-02-26 20:43:00,44.8,20.7,29.25,North,357,0.0,0.0,38,0.00,,,0.00,meteohub,2013-02-27 02:43:00,
2013-02-26 20:48:00,44.6,20.5,29.25,North,357,0.0,0.0,38,0.00,,,0.00,meteohub,2013-02-27 02:48:00,
2013-02-26 20:53:00,44.2,20.8,29.25,North,357,0.0,0.0,39,0.00,,,0.00,meteohub,2013-02-27 02:53:00,
2013-02-26 20:58:00,44.1,20.7,29.25,North,357,0.0,0.0,39,0.00,,,0.00,meteohub,2013-02-27 02:58:00,
2013-02-26 21:03:00,43.9,20.5,29.25,North,357,0.0,0.0,39,0.00,,,0.00,meteohub,2013-02-27 03:03:00,
2013-02-26 21:08:00,43.7,20.3,29.25,North,357,0.0,0.0,39,0.00,,,0.00,meteohub,2013-02-27 03:08:00,
2013-02-26 21:13:00,43.5,20.8,29.25,North,357,0.0,0.0,40,0.00,,,0.00,meteohub,2013-02-27 03:13:00,
2013-02-26 21:18:00,43.5,20.8,29.25,North,357,0.0,0.0,40,0.00,,,0.00,meteohub,2013-02-27 03:18:00,
2013-02-26 21:24:00,43.3,20.7,29.25,North,357,0.0,0.0,40,0.00,,,0.00,meteohub,2013-02-27 03:24:00,
2013-02-26 21:29:00,43.2,21.0,29.25,North,357,0.0,0.0,41,0.00,,,0.00,meteohub,2013-02-27 03:29:00,
2013-02-26 21:34:00,43.2,21.0,29.25,North,357,0.0,0.0,41,0.00,,,0.00,meteohub,2013-02-27 03:34:00,
2013-02-26 21:39:00,43.0,20.8,29.25,North,357,0.0,0.0,41,0.00,,,0.00,meteohub,2013-02-27 03:39:00,
2013-02-26 21:44:00,43.0,21.4,29.28,North,357,0.0,0.0,42,0.00,,,0.00,meteohub,2013-02-27 03:44:00,
2013-02-26 21:49:00,43.0,21.4,29.28,North,357,0.0,0.0,42,0.00,,,0.00,meteohub,2013-02-27 03:49:00,
2013-02-26 21:54:00,42.8,21.4,29.28,North,357,0.0,0.0,42,0.00,,,0.00,meteohub,2013-02-27 03:54:00,
2013-02-26 21:59:00,42.8,21.4,29.28,North,357,0.0,0.0,42,0.00,,,0.00,meteohub,2013-02-27 03:59:00,
2013-02-26 22:04:00,42.8,21.9,29.28,North,357,0.0,0.0,43,0.00,,,0.00,meteohub,2013-02-27 04:04:00,
2013-02-26 22:10:00,42.6,21.7,29.28,North,357,0.0,0.0,43,0.00,,,0.00,meteohub,2013-02-27 04:10:00,
2013-02-26 22:15:00,42.6,21.7,29.25,North,357,0.0,0.0,43,0.00,,,0.00,meteohub,2013-02-27 04:15:00,
2013-02-26 22:20:00,42.6,22.3,29.25,North,357,0.0,0.0,44,0.00,,,0.00,meteohub,2013-02-27 04:20:00,
2013-02-26 22:25:00,42.4,22.1,29.25,North,357,0.0,0.0,44,0.00,,,0.00,meteohub,2013-02-27 04:25:00,
2013-02-26 22:30:00,42.4,22.1,29.25,North,357,0.0,0.0,44,0.00,,,0.00,meteohub,2013-02-27 04:30:00,
2013-02-26 22:35:00,42.4,22.1,29.25,North,357,0.0,0.0,44,0.00,,,0.00,meteohub,2013-02-27 04:35:00,
2013-02-26 22:40:00,42.3,21.9,29.25,North,357,0.0,0.0,44,0.00,,,0.00,meteohub,2013-02-27 04:40:00,
2013-02-26 22:45:00,42.3,21.9,29.25,North,357,0.0,0.0,44,0.00,,,0.00,meteohub,2013-02-27 04:45:00,
2013-02-26 22:50:00,42.3,21.9,29.25,North,357,0.0,0.0,44,0.00,,,0.00,meteohub,2013-02-27 04:50:00,
2013-02-26 22:56:00,42.3,21.9,29.25,North,357,0.0,0.0,44,0.00,,,0.00,meteohub,2013-02-27 04:56:00,
2013-02-26 23:00:00,42.3,21.9,29.25,North,357,0.0,0.0,44,0.00,,,0.00,meteohub,2013-02-27 05:00:00,
2013-02-26 23:02:00,42.3,22.5,29.25,North,357,0.0,0.0,45,0.00,,,0.00,meteohub,2013-02-27 05:02:00,
2013-02-26 23:03:00,42.4,22.6,29.25,North,357,0.0,0.0,45,0.00,,,0.00,meteohub,2013-02-27 05:03:00,
2013-02-26 23:08:00,42.6,22.8,29.25,North,357,0.0,0.0,45,0.00,,,0.00,meteohub,2013-02-27 05:08:00,
2013-02-26 23:13:00,42.6,22.3,29.25,North,357,0.0,0.0,44,0.00,,,0.00,meteohub,2013-02-27 05:13:00,
2013-02-26 23:18:00,42.6,22.3,29.25,North,357,0.0,0.0,44,0.00,,,0.00,meteohub,2013-02-27 05:18:00,
2013-02-26 23:24:00,42.8,22.5,29.25,North,357,0.0,0.0,44,0.00,,,0.00,meteohub,2013-02-27 05:24:00,
2013-02-26 23:29:00,43.0,22.6,29.25,North,357,0.0,0.0,44,0.00,,,0.00,meteohub,2013-02-27 05:29:00,
2013-02-26 23:34:00,43.0,22.6,29.25,North,357,0.0,0.0,44,0.00,,,0.00,meteohub,2013-02-27 05:34:00,
2013-02-26 23:39:00,43.0,22.6,29.25,North,357,0.0,0.0,44,0.00,,,0.00,meteohub,2013-02-27 05:39:00,
2013-02-26 23:44:00,43.2,22.6,29.25,North,357,0.0,0.0,44,0.00,,,0.00,meteohub,2013-02-27 05:44:00,
2013-02-26 23:49:00,43.3,22.8,29.25,North,357,0.0,0.0,44,0.00,,,0.00,meteohub,2013-02-27 05:49:00,
2013-02-26 23:54:00,43.5,23.0,29.25,North,357,0.0,0.0,44,0.00,,,0.00,meteohub,2013-02-27 05:54:00,
2013-02-26 23:59:00,43.5,22.5,29.25,North,357,0.0,0.0,43,0.00,,,0.00,meteohub,2013-02-27 05:59:00,